{"data":{"norad_id":64253,"epoch":"2026-09-20T09:19:11.255808Z","epoch_age_seconds":147223,"freshness":"FRESH","line1":"1 64253U 25119W   26263.38832472 -.00005610  00000+0 -19475-3 0  9996","line2":"2 64253  43.0021 287.6925 0001931 266.5004  93.5627 15.27536247 73945","mean_motion":15.27536247,"eccentricity":0.0001931,"inclination_deg":43.0021,"raan_deg":287.6925,"arg_perigee_deg":266.5004,"mean_anomaly_deg":93.5627,"bstar":-0.00019475,"rev_number":7394,"period_min":94.269448782514,"perigee_km":481.85519105463,"apogee_km":484.50503172305,"semimajor_km":6861.3171113888,"source":"CELESTRAK","updated_at":"2026-09-21T09:00:35.280532Z"}}